Tracking 30970 objects as of 3-Jul-2025
HD Live streaming from Space Station
objects crossing your sky now

FENGYUN 1C DEB

Track FENGYUN 1C DEB now!
10-day predictions


NORAD ID: 31092
Int'l Code: 1999-025BGN
Perigee: 848.8 km
Apogee: 1,339.7 km
Inclination: 99.7 °
Period: 107.0 minutes
Semi major axis: 7465 km
RCS: 0.0082 m2 (small)
Launch date: May 10, 1999
Source: People's Republic of China (PRC)
Launch site: Taiyaun Space Center, China (TSC)

Note: This is SATELLITE DEBRIS
Your satellite tracking list
STARLINK-1610
Track 1 satellite(s)




NASA's NSSDC Master Catalog

Two Line Element Set (TLE):
1 31092U 99025BGN 25183.57792931  .00001151  00000-0  14404-2 0  9995
2 31092  99.7083 304.2514 0328787 179.5357 180.6142 13.45985513897644
Source of the keplerian elements: AFSPC